Flag for Singapore Weather past 2 weeks in Singapore, Singapore

Now
86 °F

Partly sunny.


Feels Like: 99 °F
Forecast: 80 / 91 °F
Wind: 5 mph from Southeast

Location: Singapore / Paya Lebar


UV Index: 7 (High)

Visibility: N/A


Pressure: 29.86 "Hg

Humidity: 79%

Dew point: 79 °F

Location of SingaporeLocation

Historic Weather in Singapore

°F

Singapore temperature yesterday

Maximum temperature yesterday: 95 °F (at 2:00 PM)
Minimum temperature yesterday: 79 °F (at 5:00 AM)
Average temperature yesterday: 86 °F

Past Weeks' High & Low Weather Summary

 TemperatureHumidityPressure
High95 °F (Apr 22, 2:00 PM)94% (Apr 11, 8:00 PM)29.92 "Hg (Apr 11, 8:00 PM)
Low77 °F (Apr 11, 6:00 PM)50% (Apr 22, 2:00 PM)29.71 "Hg (Apr 14, 5:00 PM)
Average84 °F77%29.81 "Hg
* Reported Apr 9 9:00 AM — Apr 24 9:00 AM, Singapore, Weather by CustomWeather, © 2014

Note: Actual official high and low records may vary slightly from our data, if they occured in-between our weather recording intervals... More about our weather records

Advertising

Historic Weather Conditions — Data for Previous 24 hours

 ConditionsComfort  
Time TempWeatherWind HumidityBarometerVisibility
9:00 AM
Apr 24
84 °FScattered clouds.1 mph84%29.83 "HgN/A
8:00 AM82 °FPartly sunny.1 mph89%29.83 "HgN/A
7:00 AM81 °FPartly sunny.1 mph89%29.80 "HgN/A
6:00 AM81 °FPassing clouds.No wind89%29.77 "HgN/A
5:00 AM81 °FPassing clouds.1 mph89%29.74 "HgN/A
11:00 PM
Apr 23
84 °FPassing clouds.No wind79%29.83 "HgN/A
10:00 PM84 °FPassing clouds.2 mph79%29.80 "HgN/A
9:00 PM84 °FPassing clouds.2 mph79%29.77 "HgN/A
8:00 PM84 °FPassing clouds.2 mph79%29.74 "HgN/A
7:00 PM84 °FScattered clouds.1 mph79%29.74 "HgN/A
6:00 PM84 °FScattered clouds.6 mph79%29.74 "HgN/A
5:00 PM84 °FThundershowers. Scattered clouds.6 mph79%29.74 "HgN/A
4:00 PM86 °FThunderstorms. Scattered clouds.9 mph79%29.74 "HgN/A
3:00 PM91 °FScattered showers. Broken clouds.8 mph63%29.74 "HgN/A
2:00 PM95 °FPartly sunny.3 mph53%29.77 "HgN/A
1:00 PM93 °FBroken clouds.3 mph56%29.80 "HgN/A
12:00 PM93 °FBroken clouds.3 mph56%29.83 "HgN/A
11:00 AM90 °FPartly sunny.3 mph63%29.86 "HgN/A
10:00 AM86 °FPartly sunny.5 mph75%29.86 "HgN/A
Weather by CustomWeather, © 2014

See weather overview